Champaign, IL

12:29 PM CDT on July 27, 2017 (GMT -0500)
Univ Of Illinois-Willard

Weather History for KCMI - January, 2013

Change the Weather History Date:

Sunday, January 13, 2013

  Actual Average Record
Temperature  
Mean Temperature 28 °F 25 °F  
Max Temperature 32 °F 33 °F 60 °F (2005)
Min Temperature 23 °F 17 °F -7 °F (1997)
Degree Days  
Heating Degree Days 37 40  
Month to date heating degree days 458 516  
Since 1 July heating degree days 2511 2797  
Cooling Degree Days 0 0  
Month to date cooling degree days 0 0  
Year to date cooling degree days 0 0  
Moisture  
Dew Point 21 °F    
Average Humidity 91    
Maximum Humidity 100    
Minimum Humidity 81    
Precipitation  
Precipitation 0.01 in 0.06 in 1.47 in (2005)
Month to date precipitation 1.21 1.02  
Year to date precipitation 1.21 1.02  
Sea Level Pressure  
Sea Level Pressure 30.07 in    
Wind  
Wind Speed 15 mph (NW)    
Max Wind Speed 25 mph    
Max Gust Speed 31 mph    
Visibility 8 miles    
Events Rain , Snow    
T = Trace of Precipitation, MM = Missing Value Source: NWS Daily Summary

Daily Weather History Graph

Daily Weather History Graph

Search for Another Location

Airport or City:

Trip Planner

Search our weather history database for the weather conditions in past years. The results will help you decide how hot, cold, wet, or windy it might be!

Date:

Astronomy

Jan. 13, 2013 Rise Set
Actual Time 7:13 AM CST 4:50 PM CST
Civil Twilight 6:43 AM CST 5:20 PM CST
Nautical Twilight 6:10 AM CST 5:53 PM CST
Astronomical Twilight 5:37 AM CST 6:26 PM CST
Moon 8:12 AM CST (1/13) 7:28 PM CST (1/13)
Length of Visible Light 10h 36m
Length of Day
9h 36m
Waxing Crescent, 5% of the Moon is Illuminated
Jan 13
Waxing Crescent
Jan 18
First Quarter
Jan 26
Full
Feb 3
Last Quarter
Feb 10
New

Hourly Weather History & Observations

Time (CST) Temp. Windchill Dew Point Humidity Pressure Visibility Wind Dir Wind Speed Gust Speed Precip Events Conditions
12:07 AM 32.0 °F 19.8 °F 30.2 °F 93% 29.83 in 9.0 mi North 20.7 mph 28.8 mph 0.00 in   Overcast
12:53 AM 32.0 °F 20.5 °F 30.0 °F 92% 29.86 in 10.0 mi NNW 18.4 mph 29.9 mph 0.00 in   Overcast
1:53 AM 30.9 °F 19.4 °F 28.9 °F 92% 29.91 in 3.0 mi NNW 17.3 mph - 0.01 in Snow Light Snow
2:53 AM 30.9 °F 22.2 °F 30.0 °F 96% 29.93 in 10.0 mi NNW 10.4 mph - 0.00 in   Overcast
3:53 AM 30.9 °F 23.5 °F 30.0 °F 96% 29.94 in 10.0 mi NNW 8.1 mph - N/A   Overcast
4:53 AM 30.9 °F 20.7 °F 28.9 °F 92% 29.96 in 9.0 mi NW 13.8 mph - N/A   Overcast
5:53 AM 30.0 °F 20.0 °F 28.0 °F 92% 29.97 in 7.0 mi NW 12.7 mph - N/A   Overcast
6:53 AM 28.9 °F 17.7 °F 27.0 °F 92% 29.98 in 7.0 mi NNW 15.0 mph - N/A   Overcast
7:53 AM 28.0 °F 16.1 °F 25.0 °F 88% 30.00 in 6.0 mi NW 16.1 mph - N/A   Overcast
8:53 AM 27.0 °F 15.2 °F 24.1 °F 89% 30.06 in 7.0 mi NW 15.0 mph - N/A   Overcast
9:10 AM 26.6 °F 13.4 °F 24.8 °F 93% 30.04 in 7.0 mi WNW 18.4 mph - 0.00 in Rain Light Freezing Rain
9:27 AM 26.6 °F 14.7 °F 24.8 °F 93% 30.02 in 8.0 mi NW 15.0 mph - 0.00 in   Overcast
9:53 AM 27.0 °F 15.6 °F 24.1 °F 89% 30.02 in 8.0 mi NNW 13.8 mph - 0.00 in   Overcast
10:53 AM 27.0 °F 14.7 °F 24.1 °F 89% 29.98 in 8.0 mi NNW 16.1 mph - N/A   Overcast
11:37 AM 26.6 °F 12.4 °F 23.0 °F 86% 30.05 in 8.0 mi WNW 21.9 mph - N/A   Overcast
11:53 AM 26.1 °F 12.3 °F 23.0 °F 88% 30.05 in 6.0 mi NW 19.6 mph 25.3 mph 0.00 in Rain Light Freezing Rain
12:13 PM 24.8 °F 11.1 °F 21.2 °F 86% 30.02 in 4.0 mi NW 18.4 mph - 0.00 in Rain Light Freezing Rain
12:24 PM 24.8 °F 11.1 °F 21.2 °F 86% 30.00 in 3.0 mi NW 18.4 mph - 0.00 in   Small Hail
12:50 PM 24.8 °F 12.4 °F 21.2 °F 86% 29.99 in 1.8 mi NNW 15.0 mph - 0.00 in   Small Hail
12:53 PM 25.0 °F 12.6 °F 21.9 °F 88% 30.01 in 1.5 mi NW 15.0 mph - 0.00 in Snow Light Snow
1:08 PM 24.8 °F 11.9 °F 21.2 °F 86% 30.00 in 3.0 mi NW 16.1 mph - 0.00 in   Light Ice Pellets
1:53 PM 24.1 °F 13.1 °F 21.0 °F 88% 30.05 in 10.0 mi NW 11.5 mph - 0.00 in   Small Hail
2:05 PM 24.8 °F 12.9 °F 19.4 °F 80% 30.03 in 10.0 mi NW 13.8 mph - 0.00 in   Overcast
2:53 PM 24.1 °F 12.0 °F 19.9 °F 84% 30.08 in 10.0 mi NW 13.8 mph - 0.00 in   Overcast
3:53 PM 23.0 °F 10.6 °F 19.0 °F 85% 30.14 in 9.0 mi NW 13.8 mph - N/A   Overcast
4:29 PM 23.0 °F 10.6 °F 19.4 °F 86% 30.13 in 10.0 mi WNW 13.8 mph - N/A   Overcast
4:53 PM 23.0 °F 10.1 °F 19.0 °F 85% 30.17 in 10.0 mi WNW 15.0 mph - N/A   Overcast
5:14 PM 23.0 °F 9.2 °F 17.6 °F 80% 30.15 in 10.0 mi WNW 17.3 mph - N/A   Overcast
5:36 PM 23.0 °F 9.2 °F 17.6 °F 80% 30.16 in 10.0 mi WNW 17.3 mph - N/A   Overcast
5:53 PM 21.9 °F 7.8 °F 18.0 °F 85% 30.20 in 10.0 mi WNW 17.3 mph - N/A   Overcast
6:53 PM 21.0 °F 6.2 °F 16.0 °F 81% 30.22 in 10.0 mi WNW 18.4 mph 24.2 mph N/A   Overcast
7:53 PM 19.9 °F 5.2 °F 15.1 °F 81% 30.24 in 10.0 mi WNW 17.3 mph - N/A   Overcast
8:43 PM 17.6 °F 1.3 °F 12.2 °F 79% 30.22 in 10.0 mi WNW 19.6 mph 25.3 mph N/A   Scattered Clouds
8:53 PM 18.0 °F 2.6 °F 12.9 °F 81% 30.26 in 10.0 mi WNW 17.3 mph - N/A   Partly Cloudy
9:53 PM 17.1 °F 2.5 °F 10.9 °F 77% 30.29 in 10.0 mi WNW 15.0 mph - N/A   Clear
10:53 PM 16.0 °F 3.6 °F 10.9 °F 81% 30.31 in 10.0 mi WNW 10.4 mph - N/A   Clear
11:53 PM 16.0 °F 5.3 °F 10.9 °F 81% 30.34 in 10.0 mi WNW 8.1 mph - N/A   Scattered Clouds